Location: ?
(35.3436°N, 139.3168°E)
Time: 09:50:10
(UTC+00:00)

X-37B - Pass Details

Date: 22 January 2021
Orbit: 383 x 391 km, 45.0° (Epoch: 10 February)

Event Time Altitude Azimuth Distance (km) Brightness Sun altitude
Rises 09:29:54 0° 283° (WNW) 2,271 5.7 -18.2°
Reaches altitude 10° 09:32:26 10° 304° (NW) 1,418 4.0 -18.7°
Maximum altitude 09:34:41 17° 348° (NNW) 1,061 2.8 -19.2°
Enters shadow 09:34:50 17° 352° (N) 1,063 2.7 -19.2°
